Home   Weather   Fehmarn (Puttgarden)   Past weeks

Flag for Germany Past Weather in Fehmarn (Puttgarden), Schleswig-Holstein, Germany — Yesterday and Last 2 Weeks

Now
64 °F

Fog.


Feels Like: 64 °F
Forecast: 60 / 67 °F
Wind: 5 mph from West

Location: Westermarkelsdorf

Current Time: Sep 1, 2016 at 5:50:23 AM

Latest Report: Sep 1, 2016 at 4:00 AM


Visibility: N/A

Pressure: 30.07 "Hg

Humidity: 83%

Dew Point: 59 °F

Location of Fehmarn (Puttgarden)Location

Past Weather in Fehmarn (Puttgarden) — Graph

°F

Fehmarn (Puttgarden) Temperature Yesterday

Maximum temperature yesterday: 75 °F (at 6:00 PM)
Minimum temperature yesterday: 60 °F (at 6:00 AM)
Average temperature yesterday: 67 °F

High & Low Weather Summary for the Past Weeks

 TemperatureHumidityPressure
High88 °F (Aug 26, 1:00 PM)100% (Aug 24, 6:00 AM)30.32 "Hg (Aug 24, 6:00 AM)
Low55 °F (Aug 21, 6:00 AM)32% (Aug 25, 6:00 PM)29.80 "Hg (Aug 28, 7:00 PM)
Average66 °F76%30.04 "Hg
* Reported Aug 17 4:00 AM — Sep 1 4:00 AM, Fehmarn (Puttgarden), Weather by CustomWeather, © 2016

Note: Actual official high and low records may vary slightly from our data, if they occured in-between our weather recording intervals... More about our weather records

Advertising

Fehmarn (Puttgarden) Weather History for the Previous 24 Hours

Scroll right to see more
 ConditionsComfort  
Time TempWeatherWind HumidityBarometerVisibility
4:00 AM
Thu, Sep 1
64 °FFog.5 mph83%30.07 "HgN/A
3:00 AM65 °FPassing clouds.5 mph83%30.06 "HgN/A
1:00 AM66 °FPassing clouds.5 mph82%30.07 "Hg22 mi
12:00 AM66 °FOvercast.3 mph73%30.07 "Hg16 mi
10:00 PM
Wed, Aug 31
62 °FOvercast.3 mph83%30.07 "Hg11 mi
9:00 PM64 °FOvercast.5 mph81%30.08 "Hg11 mi
7:00 PM72 °FPartly sunny.3 mph47%30.09 "Hg43 mi
6:00 PM75 °FScattered clouds.5 mph42%30.10 "Hg25 mi
4:00 PM74 °FOvercast.5 mph44%30.13 "Hg19 mi
3:00 PM73 °FOvercast.6 mph46%30.15 "Hg19 mi
1:00 PM72 °FOvercast.6 mph51%30.18 "Hg13 mi
12:00 PM72 °FOvercast.3 mph53%30.19 "Hg14 mi
10:00 AM67 °FPassing clouds.3 mph66%30.21 "Hg17 mi
9:00 AM65 °FPassing clouds.2 mph78%30.22 "Hg9 mi
7:00 AM60 °FPassing clouds.2 mph92%30.22 "Hg4 mi
6:00 AM60 °FPassing clouds.2 mph93%30.22 "Hg6 mi
Weather by CustomWeather, © 2016

See weather overviewHow to use our weather pages